Starlink 4264

operational
NORAD ID: 52993 Int'l Des: 2022-076 Owner: SPXS Country: US Constellation: starlink
LEOCIRCULAR

About Starlink 4264

Description loading...

Live Position

Loading 3D Globe...

Upcoming Passes

Altitude History

Altitude vs Time

uPlot chart will show altitude changes over time

Two-Line Element Set

1 52993U 22076H 25305.33085883 .00000229 00000-0 32500-4 0 9995
2 52993 53.2184 310.3466 0001451 93.4319 266.6839 15.08831351183463
Epoch: Nov 1, 2025 • Age: 13 hours

Current Status

Altitude 540.7 km
Velocity 7.59 km/s
Sub-Earth Point 0.40°N, 43.03°W
Launch Date Jul 7, 2022
Age 3.3 years
Type internet

Technical Details

Classification Payload
Mass 297.00 kg
Dry Mass 275.00 kg
Total Mass 297.00 kg
Length 0.20 m
Diameter 2.80 m
Span 9.00 m
Shape Box + pan
Manufacturer SPXS
Bus Type Starlink
Phase Status In Orbit
Owner/State SPXS/US

Large Constellations

Loading constellations...